THOR BURNER 2 R/B, 2877

Orbit data source: Space-Track

THOR BURNER 2 R/B, 2877 is space debris in LEO originally from a launch on Thu, 29 Jun 1967 UTC launched from the Air Force Western Test Range (AFWTR). Debris objects in space refer to the collection of defunct objects orbiting the Earth. Examples of debris include non-operational satellites, rocket bodies, and fragments generated from explosions, collisions, or faulty payload assembly.

Loading next visibility...
Identifier
2877, 1967-065C
Orbit
LEO
Country
Flag of USUS
Related business
Manufacturer
BOKT/THKE
Mission
Spacecraft
Bus & Motor
STAR 13, STAR 13
Mass
58 kg wet, 25 kg dry
Launch date (UTC)
1967-06-29 (58 years ago)
Launch vehicle
Unknown
Launch site
Air Force Western Test Range (AFWTR)
Object type
Payload
Rocket body
Debris
Shape & HBR
Sphere + 1 Nozzle, 0.3 m
Radar Cross Section
0.385 m², Medium (>0.1 m² and < 1m²)

Expand to show TLE details & history
Last TLE update: 1 week ago

TLE from 1 week ago
0 THOR BURNER 2 R/B
1 02877U 67065C   25233.21243018  .00000000  00000-0 -11509-2 0  9993
2 02877  90.0051 313.7693 0065935  20.7173 339.6317  8.36608419775894
Epoch: 2025-08-21T05:05Z
TLE epoch observation values (Epoch: 2025-08-21T05:05:53.967Z)
Latitude
0.00007°
Longitude
-92.4847°
Altitude
3,810.618 km
Speed
6.275 km/s
True Right ascension
20h 55m 04s
True Declination
0° 00' 00"
Sunlit
Object was in full shadow at epoch
Visualization orbit readout
Latitude
Unknown
Longitude
Unknown
Altitude
Unknown
Speed
Unknown
Apparent Right ascension
Unknown
Apparent Declination
Unknown
Sunlit
N/A
Visualization observer readout
Local Sidereal Time
14:06:39
Azimuth
Unknown
Elevation
Unknown
Doppler factor
Unknown
Orbital elements
Apogee altitude
3,937.207 km
Perigee altitude
3,802.07 km
Semi-major axis
10,247.775 km
Eccentricity
0.00659
Inclination
90.0051°
RAAN
313.7693°
Arg. of periapsis
20.7173°
True anomaly
339.36668°
Mean anomaly
339.6317°
Eccentric anomaly
339.4994°
Mean motion
2.09218 °/min
Orbital period
172.07 mins
BSTAR
-0.0011509
Loading maneuver chart data...
Computing Atmospheric mass density...
Loading historical data...
Loading historical data...
Loading historical data...
Loading historical data...
Loading historical data...
Loading historical data...
Loading historical data...
Other satellites on launch #65 in the year 1967 (1967-06-29 UTC)

Documentation

Showing up to 5 results
|